ELECTRON R/B

Last updated on Nov. 14, 2019, 12:02 a.m. UTC

1 44635U 19069B   19316.76042596  .00014653  00000-0  34449-3 0  9992
2 44635  87.8951  36.8809 0624983 185.1346 174.3254 14.40930075  3839

Satellite is not in orbit.